[[{"header":{"parameterUnit":"m.s-1","parameterCategory":1,"la1":30.2991,"la2":30.254,"lo1":-89.0895,"lo2":-89.0444,"dy":0.0017,"dx":0.0017,"nx":28,"ny":28,"refTime":"2024-03-03T09:00:00:Z","depth":0,"parameterNumber":2,"parameterNumberName":"U-component_of_WINDS"},"data":[0,0,0,0,0,0,0,0,0,0,0,0,0,0,0,0,0,0,0,0,0,0,0,0,0,0,0,0,0,0,0,0,0,0,0,0,0,0,0,0,0,0,0,0,0,0,0,0,0,0,0,0,0,0,0,0,0,0,-2.7112,-2.7112,0,-2.7143,-2.7143,-2.7144,-2.7072,-2.7069,-2.7067,-2.7065,-2.7102,-2.7105,-2.7108,0,0,0,0,0,0,0,0,0,0,0,0,0,-2.6994,-2.6997,-2.7111,-2.7112,-2.7112,-2.7143,-2.7143,-2.7144,-2.7072,-2.7069,-2.7066,-2.7064,-2.7101,-2.7105,-2.7108,0,0,0,0,0,0,0,0,0,0,0,0,0,-2.7038,-2.6998,-2.7111,-2.708,-2.7078,-2.7143,-2.7143,-2.7144,-2.7073,-2.7069,-2.7066,-2.7062,-2.71,-2.7104,-2.7109,-2.7207,0,0,-2.7123,-2.7125,0,0,0,0,0,0,0,0,-2.7035,-2.7042,-2.7084,-2.7082,-2.708,-2.71,-2.7115,-2.7165,-2.7074,-2.7075,-2.7065,-2.7061,-2.7104,-2.7108,-2.7122,-2.7209,-2.7211,-2.7124,-2.7126,-2.7129,-2.713,0,0,0,0,0,0,0,-2.7032,-2.704,-2.7124,-2.7085,-2.7082,-2.7066,-2.7068,-2.7125,-2.7109,-2.7074,-2.7069,-2.7074,-2.7102,-2.7118,-2.7122,-2.7211,-2.7124,-2.7128,-2.7131,-2.7132,-2.7382,-2.7385,0,0,0,0,0,0,-2.7033,-2.7038,-2.7123,-2.7125,-2.7048,-2.7071,-2.7074,-2.7097,-2.7108,-2.7106,-2.7077,-2.707,-2.7111,-2.7117,-2.7123,-2.724,-2.7128,-2.7133,-2.7136,-2.7378,-2.7383,-2.7387,0,0,0,0,0,0,-2.703,-2.7041,-2.7122,-2.708,-2.7089,-2.7077,-2.7103,-2.7099,-2.7114,-2.7109,-2.7107,-2.7095,-2.7109,-2.7117,-2.7187,-2.724,-2.7135,-2.7139,-2.7373,-2.7379,-2.7385,-2.7473,0,0,0,0,0,0,-2.7027,-2.704,-2.7077,-2.7081,-2.7092,-2.7183,-2.7107,-2.7102,-2.7122,-2.7114,-2.7126,-2.7125,-2.7107,-2.718,-2.7192,-2.7245,-2.7143,-2.7369,-2.7376,-2.7383,-2.7466,-2.7481,-2.7495,0,0,0,0,0,-2.7023,-2.7101,-2.7079,-2.7089,-2.7136,-2.7187,-2.7193,-2.7169,-2.7127,-2.7164,-2.7161,-2.7124,-2.7232,-2.7188,-2.72,-2.7256,-2.7365,-2.7374,-2.7382,-2.7459,-2.7478,-2.7494,0,0,0,0,0,0,-2.7104,-2.7101,-2.7076,-2.7158,-2.7173,-2.7174,-2.722,-2.719,-2.7219,-2.721,-2.7181,-2.7185,-2.7261,-2.7265,-2.7216,-2.7352,-2.7292,-2.7303,-2.7346,-2.7364,-2.7379,-2.7376,-2.7147,0,0,0,0,0,-2.7131,-2.7171,-2.7167,-2.7239,-2.7248,-2.7233,-2.7254,-2.7234,-2.725,-2.7256,-2.7258,-2.7276,-2.7313,-2.7339,-2.7374,-2.7466,-2.7468,-2.751,-2.7525,-2.7537,-2.7547,-2.7597,-2.7616,-2.7415,-2.7415,-2.7414,0,0,-2.7188,-2.7191,-2.7218,-2.7255,-2.7265,-2.7308,-2.7239,-2.7287,-2.7319,-2.7264,-2.7329,-2.7332,-2.735,-2.7432,-2.7468,-2.7438,-2.7603,-2.7548,-2.7557,-2.7561,-2.7608,-2.7627,-2.7644,-2.742,-2.7419,-2.7419,0,0,-2.7313,-2.7319,-2.738,-2.7391,-2.7406,-2.7395,-2.741,-2.7416,-2.7415,-2.7481,-2.744,-2.7479,-2.7545,-2.7559,-2.7575,-2.7707,-2.7675,-2.772,-2.7796,-2.7845,-2.7861,-2.7875,-2.7923,-2.794,-2.773,-2.773,-2.773,0,-2.7382,-2.7444,-2.7416,-2.7467,-2.7485,-2.7436,-2.7498,-2.751,-2.7537,-2.7551,-2.7517,-2.7598,-2.7607,-2.7692,-2.7724,-2.7738,-2.7755,-2.7718,-2.7861,-2.7874,-2.7887,-2.7932,-2.795,-2.7735,-2.7735,-2.7734,-2.7734,0,-2.7528,-2.7572,-2.762,-2.7644,-2.7668,-2.7725,-2.7707,-2.7735,-2.7714,-2.7708,-2.7776,-2.7784,-2.782,-2.7839,-2.7819,-2.7922,-2.7902,-2.7865,-2.7804,-2.7912,-2.7954,-2.7971,-2.7743,-2.7741,-2.774,-2.7738,0,0,-2.7704,-2.7713,-2.7731,-2.7742,-2.7755,-2.7789,-2.7845,-2.7878,-2.7903,-2.7923,-2.797,-2.8027,-2.7992,-2.8011,-2.7993,-2.8036,-2.8141,-2.7993,-2.7993,-2.802,-2.8255,-2.8283,-2.8303,-2.8119,-2.8123,-2.8125,-2.8253,0,-2.7828,-2.7921,-2.7898,-2.7991,-2.8032,-2.7986,-2.8035,-2.8049,-2.8045,-2.8081,-2.8077,-2.8118,-2.8069,-2.808,-2.8121,-2.8119,-2.8187,-2.811,-2.8164,-2.8166,-2.8161,-2.8325,-2.8355,-2.8475,-2.827,-2.8272,-2.8274,0,-2.7985,-2.801,-2.8107,-2.8113,-2.813,-2.8173,-2.8203,-2.8237,-2.8253,-2.8247,-2.8268,-2.8242,-2.8298,-2.8237,-2.8315,-2.8263,-2.8284,-2.8287,-2.8291,-2.8295,-2.8227,-2.8334,-2.8513,-2.8531,-2.83,-2.8298,-2.8296,0,-2.8104,-2.8162,-2.8227,-2.8238,-2.8248,-2.828,-2.8286,-2.8298,-2.832,-2.8347,-2.8361,-2.8394,-2.8413,-2.844,-2.8424,-2.8381,-2.8506,-2.8443,-2.8504,-2.8505,-2.8532,-2.8531,-2.8718,-2.8546,-2.8546,-2.8545,-2.8545,0,-2.8245,-2.8306,-2.8281,-2.8321,-2.8389,-2.8363,-2.8432,-2.8432,-2.8444,-2.8485,-2.8448,-2.8488,-2.8464,-2.8503,-2.8491,-2.8558,-2.8567,-2.8565,-2.8561,-2.8568,-2.8569,-2.8582,-2.8573,-2.855,-2.8549,-2.8548,-2.8547,0,-2.8389,-2.8375,-2.8443,-2.8447,-2.8449,-2.8499,-2.8503,-2.8542,-2.8535,-2.8588,-2.8599,-2.8589,-2.8633,-2.8619,-2.8667,-2.8659,-2.8744,-2.873,-2.8738,-2.8735,-2.8797,-2.8791,-2.8998,-2.9025,-2.8836,-2.8838,-2.8839,0,-2.848,-2.8526,-2.8534,-2.8558,-2.8566,-2.8606,-2.8628,-2.8605,-2.8629,-2.8652,-2.8688,-2.8728,-2.8758,-2.883,-2.8829,-2.8865,-2.8851,-2.8921,-2.8856,-2.8862,-2.8853,-2.885,-2.8855,-2.8934,-2.8936,-2.8938,-2.894,0,-2.8642,-2.8633,-2.8665,-2.8696,-2.8723,-2.8746,-2.8766,-2.8788,-2.8767,-2.8797,-2.884,-2.8864,-2.8911,-2.8952,-2.8985,-2.8993,-2.8964,-2.896,-2.8976,-2.8984,-2.8987,-2.8987,-2.8774,-2.8955,-2.8954,-2.8953,-2.8952,-2.8951,-2.8763,-2.8802,-2.8814,-2.8851,-2.8864,-2.8884,-2.892,-2.8918,-2.8953,-2.8989,-2.8974,-2.9024,-2.904,-2.9081,-2.9094,-2.9134,-2.9107,-2.913,-2.9136,-2.9142,-2.915,-2.8981,-2.914,-2.9139,-2.9139,-2.9138,-2.9138,0,-2.8924,-2.8929,-2.8964,-2.8993,-2.9023,-2.8991,-2.9012,-2.904,-2.9084,-2.9101,-2.9131,-2.9182,-2.9221,-2.9223,-2.926,-2.9292,-2.928,-2.9303,-2.93,-2.9303,-2.9172,-2.9154,-2.9312,-2.9312,-2.9312,-2.9312,-2.9312,-2.9312,-2.9011,-2.9075,-2.9068,-2.9138,-2.9144,-2.9191,-2.9206,-2.9225,-2.9238,-2.9295,-2.9327,-2.9328,-2.9339,-2.9377,-2.9413,-2.9412,-2.9428,-2.9456,-2.9451,-2.9329,-2.9312,-2.9295,-2.9278,-2.946,-2.946,-2.9579,-2.958,-2.9581]},{"header":{"parameterUnit":"m.s-1","parameterCategory":1,"la1":30.2991,"la2":30.254,"lo1":-89.0895,"lo2":-89.0444,"dy":0.0017,"dx":0.0017,"nx":28,"ny":28,"refTime":"2024-03-03T09:00:00:Z","depth":0,"parameterNumber":3,"parameterNumberName":"V-component_of_WINDS"},"data":[0,0,0,0,0,0,0,0,0,0,0,0,0,0,0,0,0,0,0,0,0,0,0,0,0,0,0,0,0,0,0,0,0,0,0,0,0,0,0,0,0,0,0,0,0,0,0,0,0,0,0,0,0,0,0,0,0,0,-0.2047,-0.2046,0,-0.1991,-0.1991,-0.199,-0.1953,-0.1952,-0.1952,-0.1952,-0.1893,-0.1892,-0.189,0,0,0,0,0,0,0,0,0,0,0,0,0,-0.2117,-0.2116,-0.2047,-0.2046,-0.2045,-0.1991,-0.1991,-0.199,-0.1953,-0.1952,-0.1952,-0.1952,-0.1893,-0.1892,-0.189,0,0,0,0,0,0,0,0,0,0,0,0,0,-0.2076,-0.2115,-0.2047,-0.202,-0.2017,-0.1992,-0.1991,-0.199,-0.1953,-0.1952,-0.1952,-0.1952,-0.1894,-0.1892,-0.189,-0.1885,0,0,-0.1884,-0.1883,0,0,0,0,0,0,0,0,-0.2079,-0.2074,-0.2025,-0.2022,-0.2019,-0.1979,-0.1994,-0.1955,-0.1953,-0.1977,-0.1952,-0.1951,-0.1922,-0.1917,-0.1908,-0.1883,-0.188,-0.1884,-0.1882,-0.1882,-0.1881,0,0,0,0,0,0,0,-0.2081,-0.2076,-0.2025,-0.2024,-0.202,-0.201,-0.2004,-0.1986,-0.1952,-0.1975,-0.1972,-0.1966,-0.192,-0.191,-0.1906,-0.1879,-0.1884,-0.1882,-0.1881,-0.188,-0.1845,-0.1846,0,0,0,0,0,0,-0.2089,-0.2078,-0.2026,-0.2023,-0.2048,-0.2009,-0.2002,-0.1992,-0.1952,-0.1946,-0.1967,-0.1965,-0.1913,-0.1908,-0.1904,-0.1895,-0.1882,-0.188,-0.1879,-0.1845,-0.1846,-0.1846,0,0,0,0,0,0,-0.209,-0.2085,-0.2029,-0.205,-0.2042,-0.2008,-0.1997,-0.1991,-0.1981,-0.1946,-0.1939,-0.1963,-0.1913,-0.1907,-0.189,-0.1892,-0.1879,-0.1877,-0.1845,-0.1845,-0.1846,-0.1878,0,0,0,0,0,0,-0.2093,-0.2085,-0.2084,-0.205,-0.2041,-0.2017,-0.1997,-0.199,-0.1978,-0.1975,-0.1941,-0.1935,-0.1912,-0.1893,-0.1888,-0.1889,-0.1875,-0.1845,-0.1845,-0.1846,-0.1876,-0.1879,-0.1881,0,0,0,0,0,-0.2095,-0.2095,-0.2084,-0.2078,-0.2039,-0.2017,-0.2012,-0.1987,-0.1978,-0.1976,-0.1953,-0.1936,-0.1893,-0.1892,-0.1886,-0.1886,-0.1844,-0.1845,-0.1846,-0.1875,-0.1878,-0.1881,0,0,0,0,0,0,-0.213,-0.2091,-0.2078,-0.2067,-0.2046,-0.2011,-0.2008,-0.1991,-0.1972,-0.1969,-0.1938,-0.1931,-0.1917,-0.19,-0.1899,-0.1879,-0.1866,-0.1866,-0.1891,-0.1894,-0.1896,-0.1901,-0.1874,0,0,0,0,0,-0.2137,-0.2123,-0.2089,-0.2083,-0.2073,-0.2042,-0.2032,-0.2014,-0.199,-0.1981,-0.1957,-0.1934,-0.1915,-0.1903,-0.1884,-0.1873,-0.1864,-0.187,-0.1873,-0.1875,-0.1875,-0.1867,-0.1869,-0.1848,-0.1848,-0.1848,0,0,-0.215,-0.2127,-0.212,-0.2089,-0.2071,-0.2056,-0.2035,-0.2021,-0.2009,-0.1978,-0.1961,-0.1943,-0.1915,-0.1901,-0.1893,-0.1886,-0.1879,-0.1876,-0.1878,-0.1877,-0.1868,-0.187,-0.1871,-0.1848,-0.1848,-0.1848,0,0,-0.2167,-0.2148,-0.2141,-0.2122,-0.2094,-0.2074,-0.2072,-0.2039,-0.2026,-0.2008,-0.1984,-0.1969,-0.1938,-0.1918,-0.1905,-0.1912,-0.1894,-0.1906,-0.192,-0.1912,-0.1914,-0.1915,-0.1917,-0.1918,-0.1906,-0.1906,-0.1906,0,-0.2187,-0.2165,-0.2138,-0.2126,-0.2112,-0.2083,-0.2074,-0.2057,-0.2025,-0.2015,-0.2008,-0.1966,-0.1946,-0.1926,-0.1928,-0.1918,-0.1913,-0.191,-0.1916,-0.1917,-0.1918,-0.1919,-0.192,-0.1908,-0.1908,-0.1908,-0.1908,0,-0.2191,-0.2176,-0.2172,-0.2142,-0.2128,-0.2117,-0.2087,-0.2076,-0.2059,-0.2038,-0.202,-0.1993,-0.1968,-0.1962,-0.1945,-0.1939,-0.1935,-0.1922,-0.1909,-0.1922,-0.1922,-0.1923,-0.191,-0.191,-0.1909,-0.1909,0,0,-0.2229,-0.2183,-0.2182,-0.2167,-0.2133,-0.2121,-0.2107,-0.2083,-0.2073,-0.2051,-0.2038,-0.2011,-0.1999,-0.1983,-0.1963,-0.1956,-0.1962,-0.1944,-0.1943,-0.1948,-0.1953,-0.1963,-0.1964,-0.195,-0.195,-0.195,-0.1955,0,-0.2241,-0.2217,-0.2192,-0.2176,-0.2161,-0.2133,-0.2121,-0.2098,-0.2079,-0.2062,-0.2039,-0.2021,-0.2006,-0.1996,-0.1988,-0.1964,-0.1963,-0.1963,-0.1937,-0.1937,-0.1945,-0.1964,-0.1975,-0.1981,-0.1955,-0.1955,-0.1955,0,-0.2251,-0.2231,-0.2214,-0.218,-0.2173,-0.2163,-0.2137,-0.2122,-0.2095,-0.2081,-0.2063,-0.2041,-0.2025,-0.2013,-0.1988,-0.1989,-0.1976,-0.1963,-0.1962,-0.1959,-0.1947,-0.1961,-0.1982,-0.1983,-0.1955,-0.1955,-0.1955,0,-0.228,-0.2248,-0.2233,-0.2222,-0.2182,-0.2176,-0.2159,-0.2131,-0.2117,-0.2094,-0.2085,-0.206,-0.2047,-0.2027,-0.1999,-0.1994,-0.1977,-0.1964,-0.1964,-0.1965,-0.1962,-0.1963,-0.1981,-0.1955,-0.1955,-0.1955,-0.1955,0,-0.2296,-0.2287,-0.2246,-0.2237,-0.2225,-0.2195,-0.2184,-0.2164,-0.2139,-0.2125,-0.2098,-0.2085,-0.2049,-0.2031,-0.2009,-0.1992,-0.1986,-0.1973,-0.1967,-0.1975,-0.1977,-0.1967,-0.1966,-0.1955,-0.1955,-0.1955,-0.1955,0,-0.2327,-0.2299,-0.2281,-0.2245,-0.2236,-0.2228,-0.2197,-0.2186,-0.2164,-0.2146,-0.214,-0.2105,-0.2083,-0.2053,-0.2021,-0.2006,-0.199,-0.1982,-0.2,-0.1997,-0.1999,-0.1999,-0.2011,-0.2011,-0.1985,-0.1986,-0.1986,0,-0.2339,-0.2331,-0.2293,-0.2282,-0.2266,-0.2248,-0.2234,-0.2203,-0.2189,-0.2157,-0.215,-0.2125,-0.2104,-0.2068,-0.204,-0.2014,-0.2005,-0.2011,-0.2001,-0.2009,-0.2004,-0.2005,-0.2003,-0.2013,-0.2014,-0.2014,-0.2014,0,-0.2362,-0.2348,-0.2329,-0.2305,-0.2289,-0.2268,-0.2246,-0.2238,-0.2202,-0.2187,-0.2164,-0.2148,-0.2114,-0.209,-0.206,-0.2041,-0.2021,-0.2018,-0.2016,-0.2025,-0.2035,-0.2029,-0.2007,-0.2018,-0.2017,-0.2017,-0.2017,-0.2017,-0.2383,-0.2374,-0.2347,-0.2326,-0.2306,-0.2285,-0.2273,-0.225,-0.223,-0.2201,-0.2184,-0.2161,-0.2131,-0.209,-0.2072,-0.2052,-0.2045,-0.2043,-0.2043,-0.2043,-0.2045,-0.2038,-0.2047,-0.2047,-0.2047,-0.2046,-0.2046,0,-0.2405,-0.2385,-0.2366,-0.2336,-0.2319,-0.2302,-0.2276,-0.2263,-0.2244,-0.2218,-0.2198,-0.217,-0.2146,-0.2114,-0.2087,-0.2078,-0.2068,-0.2071,-0.2072,-0.2067,-0.2054,-0.2057,-0.208,-0.208,-0.208,-0.208,-0.208,-0.208,-0.2414,-0.2398,-0.2381,-0.2354,-0.2334,-0.2312,-0.2298,-0.2278,-0.2258,-0.2229,-0.2208,-0.2188,-0.216,-0.2131,-0.2107,-0.2098,-0.2089,-0.2095,-0.2084,-0.2072,-0.2069,-0.2066,-0.2069,-0.2094,-0.2094,-0.2099,-0.2099,-0.2099]}]]